contact:dominique.lefevre@mio.osupytheas.fr, maurice.libes@osupytheas.fr, didier.mallarino@osupytheas.fr
Project:EMSO http://www.emso-fr.org/EMSO-France
Depth: 2436.0 m
Title:EMSO Ligure Ouest : Data MII capteur AQUADOPP
Date,Latitude,Longitude,X_East,Y_North,Z_Up,Amplitude_X,Amplitude_Y,Amplitude_Z,Batterie,SoundSpeed,Heading,Pitch,Roll,Pressure,TIS,Speed,Direction
, degrees North, degrees East, m.s-1, m.s-1,m.s-1, 1, 1, 1, Volt, m.s-1, degree, degree, degree, dbar, degree_C, m.s-1, degree
2023-03-18T00:04:03,42.805,6.029,-0.085,-0.003,-0.029,104.0,103.0,102.0,13.3,1505.2,317.5,-0.8,1.8,2471.325,13.28,0.085,268.0
2023-03-18T00:07:03,42.805,6.029,-0.083,0.003,-0.051,102.0,103.0,103.0,13.3,1505.2,333.0,-0.8,1.8,2471.312,13.28,0.083,272.1
2023-03-18T00:10:03,42.805,6.029,-0.04,-0.012,-0.008,103.0,101.0,102.0,13.4,1505.2,321.0,-0.8,1.8,2471.287,13.28,0.041,253.3
2023-03-18T00:13:03,42.805,6.029,-0.063,-0.009,-0.021,102.0,102.0,102.0,13.3,1505.2,327.4,-0.8,1.8,2471.323,13.28,0.063,261.9
2023-03-18T00:16:03,42.805,6.029,-0.062,-0.007,-0.061,102.0,103.0,102.0,13.4,1505.2,331.5,-0.8,1.8,2471.352,13.28,0.062,263.6
2023-03-18T00:19:03,42.805,6.029,-0.055,0.008,-0.036,102.0,103.0,102.0,13.3,1505.2,338.5,-0.7,1.8,2471.322,13.28,0.055,278.3
2023-03-18T00:22:03,42.805,6.029,-0.071,-0.022,-0.063,103.0,102.0,102.0,13.4,1505.2,325.7,-0.8,1.8,2471.335,13.28,0.074,252.8
2023-03-18T00:25:03,42.805,6.029,-0.052,0.015,-0.006,102.0,102.0,101.0,13.4,1505.2,329.5,-0.8,1.8,2471.283,13.28,0.054,286.1
2023-03-18T00:28:03,42.805,6.029,-0.063,0.003,-0.017,102.0,102.0,102.0,13.4,1505.2,324.5,-0.7,1.8,2471.292,13.28,0.063,272.7
2023-03-18T00:31:03,42.805,6.029,-0.047,-0.005,-0.023,102.0,102.0,103.0,13.4,1505.2,323.8,-0.8,1.9,2471.295,13.29,0.047,263.9
2023-03-18T00:34:03,42.805,6.029,-0.052,-0.008,-0.04,103.0,104.0,101.0,13.4,1505.2,315.5,-0.8,1.8,2471.3,13.28,0.052,261.3
2023-03-18T00:37:03,42.805,6.029,-0.07,-0.005,-0.031,103.0,104.0,102.0,13.3,1505.2,327.9,-0.8,1.8,2471.33,13.28,0.07,265.9
2023-03-18T00:40:03,42.805,6.029,-0.066,-0.005,-0.01,104.0,102.0,104.0,13.3,1505.2,323.2,-0.8,1.8,2471.319,13.29,0.066,265.7
2023-03-18T00:43:03,42.805,6.029,-0.072,-0.01,-0.064,104.0,102.0,101.0,13.4,1505.2,322.7,-0.7,1.8,2471.305,13.29,0.072,262.1
2023-03-18T00:46:03,42.805,6.029,-0.052,-0.019,-0.004,104.0,100.0,102.0,13.4,1505.2,319.4,-0.7,1.8,2471.349,13.29,0.055,249.9
2023-03-18T00:49:03,42.805,6.029,-0.044,-0.014,-0.033,104.0,103.0,102.0,13.4,1505.2,318.8,-0.8,1.8,2471.345,13.29,0.046,252.4
2023-03-18T00:52:03,42.805,6.029,-0.052,-0.006,-0.03,104.0,103.0,103.0,13.3,1505.2,327.5,-0.7,1.8,2471.325,13.29,0.052,263.4
2023-03-18T00:55:03,42.805,6.029,-0.057,-0.025,-0.058,104.0,103.0,102.0,13.4,1505.2,327.4,-0.7,1.8,2471.34,13.29,0.062,246.3
2023-03-18T00:58:03,42.805,6.029,-0.048,-0.011,-0.021,101.0,103.0,103.0,13.4,1505.2,323.4,-0.8,1.8,2471.349,13.29,0.049,257.1
2023-03-18T01:04:03,42.805,6.029,-0.046,0.008,-0.013,105.0,104.0,103.0,13.3,1505.2,326.5,-0.8,1.8,2471.422,13.28,0.046,279.9
2023-03-18T01:07:02,42.805,6.029,-0.055,0.002,-0.035,104.0,103.0,102.0,13.4,1505.2,336.1,-0.8,1.8,2471.363,13.28,0.055,272.1
2023-03-18T01:10:03,42.805,6.029,-0.05,-0.008,-0.026,103.0,102.0,102.0,13.3,1505.2,334.6,-0.8,1.8,2471.383,13.28,0.05,260.9
2023-03-18T01:13:03,42.805,6.029,-0.055,0.0,-0.044,103.0,103.0,102.0,13.3,1505.2,321.3,-0.7,1.8,2471.359,13.28,0.055,270.0
2023-03-18T01:16:03,42.805,6.029,-0.03,-0.007,0.0,104.0,102.0,102.0,13.4,1505.2,326.0,-0.7,1.9,2471.362,13.28,0.03,256.9
2023-03-18T01:19:03,42.805,6.029,-0.074,-0.014,-0.048,103.0,104.0,101.0,13.4,1505.2,329.6,-0.8,1.8,2471.386,13.28,0.075,259.3
2023-03-18T01:22:03,42.805,6.029,-0.054,-0.001,-0.035,102.0,102.0,102.0,13.4,1505.2,330.5,-0.7,1.8,2471.361,13.28,0.054,268.9
2023-03-18T01:25:03,42.805,6.029,-0.057,-0.029,-0.045,105.0,102.0,100.0,13.3,1505.2,324.8,-0.7,1.8,2471.352,13.28,0.063,243.0
2023-03-18T01:28:03,42.805,6.029,-0.049,0.011,-0.013,103.0,102.0,102.0,13.3,1505.2,338.2,-0.8,1.8,2471.363,13.29,0.05,282.7
2023-03-18T01:31:03,42.805,6.029,-0.059,0.01,-0.02,102.0,103.0,103.0,13.4,1505.2,330.2,-0.8,1.8,2471.353,13.29,0.059,279.6
2023-03-18T01:34:03,42.805,6.029,-0.045,-0.018,-0.021,103.0,102.0,103.0,13.4,1505.2,333.0,-0.8,1.8,2471.369,13.29,0.048,248.2
2023-03-18T01:37:03,42.805,6.029,-0.066,-0.019,-0.056,102.0,103.0,102.0,13.4,1505.2,322.9,-0.7,1.8,2471.38,13.29,0.068,253.9
2023-03-18T01:40:03,42.805,6.029,-0.054,-0.008,-0.043,103.0,101.0,103.0,13.3,1505.2,327.7,-0.8,1.8,2471.374,13.29,0.054,261.6
2023-03-18T01:43:03,42.805,6.029,-0.048,-0.032,-0.038,104.0,101.0,101.0,13.4,1505.2,321.2,-0.7,1.8,2471.365,13.29,0.057,236.3
2023-03-18T01:46:03,42.805,6.029,-0.042,-0.009,-0.035,103.0,103.0,103.0,13.4,1505.2,340.0,-0.8,1.8,2471.361,13.29,0.042,257.9
2023-03-18T01:49:03,42.805,6.029,-0.067,-0.039,-0.045,101.0,103.0,103.0,13.3,1505.2,317.8,-0.7,1.8,2471.391,13.29,0.077,239.8
2023-03-18T01:52:03,42.805,6.029,-0.044,-0.008,-0.037,103.0,103.0,103.0,13.4,1505.2,315.6,-0.8,1.8,2471.4,13.29,0.044,259.7
2023-03-18T01:55:03,42.805,6.029,-0.024,-0.011,-0.04,104.0,102.0,101.0,13.3,1505.2,343.2,-0.8,1.8,2471.36,13.29,0.026,245.4
2023-03-18T01:58:03,42.805,6.029,-0.026,-0.022,-0.022,103.0,102.0,102.0,13.4,1505.2,325.7,-0.8,1.8,2471.389,13.29,0.034,229.8
2023-03-18T02:04:03,42.805,6.029,-0.071,0.0,-0.005,101.0,102.0,103.0,13.4,1505.2,318.2,-0.8,1.8,2471.426,13.28,0.07,270.0
2023-03-18T02:07:03,42.805,6.029,-0.058,-0.002,-0.036,103.0,102.0,103.0,13.4,1505.2,341.2,-0.8,1.8,2471.42,13.28,0.058,268.0
2023-03-18T02:10:03,42.805,6.029,-0.041,0.027,-0.022,104.0,103.0,101.0,13.4,1505.2,341.8,-0.8,1.8,2471.414,13.28,0.049,303.4
2023-03-18T02:13:03,42.805,6.029,-0.058,-0.013,-0.027,102.0,101.0,104.0,13.4,1505.2,322.3,-0.8,1.8,2471.373,13.28,0.059,257.4
2023-03-18T02:16:03,42.805,6.029,-0.053,-0.007,-0.011,102.0,101.0,103.0,13.4,1505.2,328.8,-0.8,1.8,2471.427,13.28,0.053,262.5
2023-03-18T02:19:03,42.805,6.029,-0.055,-0.004,-0.046,104.0,102.0,103.0,13.3,1505.2,341.2,-0.7,1.8,2471.395,13.29,0.055,265.8
2023-03-18T02:22:03,42.805,6.029,-0.066,0.007,-0.05,102.0,102.0,102.0,13.4,1505.2,340.3,-0.7,1.8,2471.422,13.29,0.066,276.1
2023-03-18T02:25:03,42.805,6.029,-0.074,-0.011,-0.041,102.0,102.0,102.0,13.4,1505.2,332.9,-0.8,1.8,2471.403,13.29,0.074,261.5
2023-03-18T02:28:03,42.805,6.029,-0.048,0.018,-0.046,103.0,103.0,101.0,13.3,1505.2,339.9,-0.8,1.8,2471.424,13.29,0.051,290.6
2023-03-18T02:31:03,42.805,6.029,-0.059,-0.014,-0.018,102.0,103.0,102.0,13.4,1505.2,320.3,-0.8,1.8,2471.418,13.29,0.06,256.7
2023-03-18T02:34:03,42.805,6.029,-0.045,0.007,-0.031,101.0,102.0,102.0,13.3,1505.2,329.9,-0.8,1.8,2471.436,13.29,0.045,278.8
2023-03-18T02:37:03,42.805,6.029,-0.054,0.003,-0.028,102.0,102.0,102.0,13.4,1505.2,340.2,-0.7,1.8,2471.387,13.29,0.054,273.2
2023-03-18T02:40:03,42.805,6.029,-0.066,0.003,-0.024,102.0,101.0,103.0,13.3,1505.2,332.9,-0.8,1.8,2471.411,13.29,0.066,272.6
2023-03-18T02:43:03,42.805,6.029,-0.029,-0.011,-0.038,101.0,103.0,101.0,13.4,1505.2,339.1,-0.8,1.8,2471.429,13.29,0.031,249.2
2023-03-18T02:46:03,42.805,6.029,-0.084,-0.008,-0.033,102.0,103.0,102.0,13.4,1505.2,324.0,-0.7,1.8,2471.417,13.29,0.084,264.6
2023-03-18T02:49:03,42.805,6.029,-0.056,-0.017,-0.064,102.0,102.0,102.0,13.3,1505.2,323.8,-0.7,1.8,2471.423,13.29,0.058,253.1
2023-03-18T02:52:03,42.805,6.029,-0.042,-0.012,-0.03,101.0,102.0,102.0,13.4,1505.2,320.6,-0.8,1.8,2471.422,13.29,0.043,254.1
2023-03-18T02:55:03,42.805,6.029,-0.054,-0.02,-0.039,104.0,103.0,101.0,13.4,1505.2,329.5,-0.8,1.8,2471.427,13.29,0.057,249.7
2023-03-18T02:58:03,42.805,6.029,-0.033,0.008,0.0,104.0,101.0,103.0,13.4,1505.2,324.6,-0.8,1.8,2471.448,13.29,0.033,283.6
2023-03-18T03:04:03,42.805,6.029,-0.04,-0.023,-0.032,103.0,101.0,101.0,13.3,1505.2,321.8,-0.8,1.8,2471.447,13.28,0.046,240.1
2023-03-18T03:07:03,42.805,6.029,-0.05,-0.018,-0.032,102.0,102.0,102.0,13.3,1505.2,327.9,-0.8,1.8,2471.503,13.28,0.053,250.2
2023-03-18T03:10:03,42.805,6.029,-0.073,0.0,-0.067,102.0,103.0,103.0,13.3,1505.2,337.8,-0.8,1.8,2471.517,13.28,0.072,270.0
2023-03-18T03:13:03,42.805,6.029,-0.067,0.002,-0.046,101.0,102.0,103.0,13.4,1505.2,334.3,-0.7,1.8,2471.457,13.28,0.067,271.7
2023-03-18T03:16:03,42.805,6.029,-0.02,-0.014,-0.01,102.0,103.0,103.0,13.3,1505.2,339.3,-0.7,1.8,2471.447,13.28,0.024,235.0
2023-03-18T03:19:03,42.805,6.029,-0.043,-0.027,-0.034,103.0,101.0,101.0,13.3,1505.2,330.6,-0.8,1.8,2471.452,13.29,0.05,237.9
2023-03-18T03:22:03,42.805,6.029,-0.047,0.005,-0.025,101.0,102.0,103.0,13.4,1505.2,341.8,-0.8,1.8,2471.477,13.29,0.047,276.1
2023-03-18T03:25:03,42.805,6.029,-0.052,-0.017,-0.057,102.0,102.0,102.0,13.4,1505.2,322.5,-0.8,1.8,2471.454,13.29,0.054,251.9
2023-03-18T03:28:03,42.805,6.029,-0.05,-0.011,-0.039,101.0,102.0,102.0,13.4,1505.2,341.5,-0.7,1.8,2471.479,13.29,0.051,257.6
2023-03-18T03:31:03,42.805,6.029,-0.047,-0.022,-0.058,104.0,100.0,102.0,13.4,1505.2,326.8,-0.8,1.8,2471.438,13.29,0.051,244.9
2023-03-18T03:34:03,42.805,6.029,-0.048,-0.012,-0.035,102.0,103.0,103.0,13.3,1505.2,320.7,-0.7,1.8,2471.486,13.29,0.049,256.0
2023-03-18T03:37:03,42.805,6.029,-0.052,0.0,-0.029,103.0,103.0,102.0,13.4,1505.2,316.1,-0.8,1.8,2471.471,13.29,0.052,270.0
2023-03-18T03:40:03,42.805,6.029,-0.039,-0.008,-0.023,103.0,103.0,102.0,13.4,1505.2,324.8,-0.7,1.8,2471.444,13.29,0.039,258.4
2023-03-18T03:43:03,42.805,6.029,-0.058,0.005,-0.022,103.0,102.0,102.0,13.3,1505.2,318.9,-0.8,1.8,2471.443,13.29,0.058,274.9
2023-03-18T03:46:03,42.805,6.029,-0.035,0.0,-0.031,103.0,103.0,102.0,13.3,1505.2,329.7,-0.8,1.8,2471.465,13.29,0.035,270.0
2023-03-18T03:49:03,42.805,6.029,-0.047,-0.007,-0.033,103.0,101.0,102.0,13.4,1505.2,338.9,-0.8,1.8,2471.437,13.29,0.047,261.5
2023-03-18T03:52:03,42.805,6.029,-0.057,-0.006,-0.037,102.0,104.0,102.0,13.4,1505.2,328.2,-0.7,1.8,2471.458,13.29,0.057,264.0
2023-03-18T03:55:03,42.805,6.029,-0.057,-0.013,-0.008,104.0,102.0,102.0,13.4,1505.2,316.1,-0.8,1.8,2471.509,13.29,0.058,257.2
2023-03-18T03:58:03,42.805,6.029,-0.042,0.005,-0.035,103.0,103.0,100.0,13.4,1505.2,338.8,-0.8,1.8,2471.476,13.29,0.042,276.8
2023-03-18T04:04:03,42.805,6.029,-0.02,-0.022,-0.012,102.0,103.0,103.0,13.4,1505.2,322.9,-0.7,1.8,2471.523,13.28,0.029,222.3
2023-03-18T04:07:03,42.805,6.029,-0.047,-0.016,-0.053,102.0,103.0,103.0,13.4,1505.2,320.6,-0.8,1.8,2471.539,13.28,0.049,251.2
2023-03-18T04:10:03,42.805,6.029,-0.041,0.001,-0.031,102.0,103.0,102.0,13.3,1505.2,331.1,-0.8,1.8,2471.543,13.28,0.041,271.4
2023-03-18T04:13:03,42.805,6.029,-0.064,0.007,-0.015,103.0,101.0,103.0,13.4,1505.2,327.4,-0.8,1.8,2471.493,13.28,0.064,276.2
2023-03-18T04:16:03,42.805,6.029,-0.056,-0.019,-0.046,103.0,103.0,102.0,13.3,1505.2,328.2,-0.8,1.8,2471.521,13.28,0.059,251.3
2023-03-18T04:19:03,42.805,6.029,-0.038,-0.028,-0.016,103.0,102.0,102.0,13.4,1505.2,317.2,-0.8,1.8,2471.514,13.29,0.047,233.6
2023-03-18T04:22:03,42.805,6.029,-0.068,0.015,-0.033,102.0,102.0,103.0,13.3,1505.2,323.1,-0.7,1.8,2471.462,13.29,0.069,282.4
2023-03-18T04:25:03,42.805,6.029,-0.056,0.006,-0.027,102.0,103.0,101.0,13.4,1505.2,324.0,-0.7,1.8,2471.491,13.29,0.056,276.1
2023-03-18T04:28:03,42.805,6.029,-0.058,0.0,-0.028,104.0,103.0,101.0,13.3,1505.2,327.2,-0.8,1.8,2471.457,13.29,0.057,270.0
2023-03-18T04:31:03,42.805,6.029,-0.083,-0.018,-0.052,103.0,101.0,102.0,13.4,1505.2,322.7,-0.8,1.8,2471.481,13.29,0.084,257.8
2023-03-18T04:34:03,42.805,6.029,-0.051,-0.005,-0.02,104.0,101.0,102.0,13.4,1505.2,322.9,-0.7,1.8,2471.487,13.29,0.051,264.4
2023-03-18T04:37:03,42.805,6.029,-0.047,-0.015,-0.026,101.0,104.0,102.0,13.4,1505.2,331.6,-0.8,1.8,2471.49,13.29,0.049,252.3
2023-03-18T04:40:03,42.805,6.029,-0.061,-0.017,-0.054,102.0,101.0,102.0,13.4,1505.2,323.4,-0.7,1.8,2471.52,13.29,0.063,254.4
2023-03-18T04:43:03,42.805,6.029,-0.065,0.005,-0.071,102.0,103.0,101.0,13.3,1505.2,335.4,-0.7,1.8,2471.475,13.29,0.065,274.4
2023-03-18T04:46:03,42.805,6.029,-0.044,-0.004,0.005,105.0,102.0,101.0,13.3,1505.2,329.3,-0.7,1.8,2471.464,13.29,0.044,264.8
2023-03-18T04:49:03,42.805,6.029,-0.071,0.012,-0.068,102.0,102.0,102.0,13.4,1505.2,336.8,-0.7,1.8,2471.483,13.29,0.072,279.6
2023-03-18T04:52:03,42.805,6.029,-0.061,-0.009,-0.032,102.0,103.0,102.0,13.4,1505.2,317.7,-0.8,1.8,2471.522,13.29,0.061,261.6
2023-03-18T04:55:03,42.805,6.029,-0.052,-0.02,-0.052,103.0,103.0,101.0,13.4,1505.2,328.5,-0.7,1.8,2471.504,13.29,0.055,249.0
2023-03-18T04:58:03,42.805,6.029,-0.061,-0.001,-0.048,101.0,102.0,102.0,13.4,1505.2,320.9,-0.8,1.8,2471.517,13.29,0.061,269.1
2023-03-18T05:04:03,42.805,6.029,-0.043,0.021,-0.03,102.0,103.0,102.0,13.4,1505.2,338.7,-0.8,1.8,2471.546,13.28,0.047,296.0
2023-03-18T05:07:03,42.805,6.029,-0.059,-0.023,-0.071,103.0,103.0,102.0,13.3,1505.2,319.2,-0.8,1.8,2471.554,13.28,0.063,248.7
2023-03-18T05:10:03,42.805,6.029,-0.035,-0.001,-0.015,103.0,103.0,102.0,13.4,1505.2,327.6,-0.7,1.8,2471.538,13.28,0.035,268.4
2023-03-18T05:13:03,42.805,6.029,-0.06,-0.002,-0.072,103.0,101.0,102.0,13.4,1505.2,326.8,-0.8,1.8,2471.511,13.28,0.06,268.1
2023-03-18T05:16:03,42.805,6.029,-0.056,-0.004,-0.041,103.0,100.0,101.0,13.3,1505.2,326.8,-0.8,1.8,2471.509,13.29,0.056,265.9
2023-03-18T05:19:03,42.805,6.029,-0.065,0.012,-0.012,102.0,102.0,102.0,13.4,1505.2,340.0,-0.7,1.8,2471.528,13.28,0.066,280.5
2023-03-18T05:22:03,42.805,6.029,-0.066,0.011,-0.015,103.0,100.0,101.0,13.4,1505.2,333.0,-0.8,1.8,2471.52,13.29,0.066,279.5
2023-03-18T05:25:03,42.805,6.029,-0.075,0.015,-0.025,103.0,101.0,102.0,13.4,1505.2,330.3,-0.8,1.8,2471.513,13.29,0.076,281.3
2023-03-18T05:28:03,42.805,6.029,-0.033,-0.012,-0.007,102.0,102.0,102.0,13.3,1505.2,328.8,-0.8,1.8,2471.474,13.29,0.035,250.0
2023-03-18T05:31:03,42.805,6.029,-0.048,0.003,-0.008,103.0,104.0,103.0,13.3,1505.2,339.3,-0.8,1.8,2471.491,13.29,0.048,273.6
2023-03-18T05:34:03,42.805,6.029,-0.06,-0.002,-0.032,103.0,102.0,102.0,13.3,1505.2,331.0,-0.8,1.8,2471.495,13.29,0.06,268.1
2023-03-18T05:37:03,42.805,6.029,-0.055,-0.003,-0.03,102.0,103.0,102.0,13.4,1505.2,335.0,-0.7,1.8,2471.518,13.29,0.055,266.9
2023-03-18T05:40:03,42.805,6.029,-0.048,-0.012,-0.032,102.0,104.0,102.0,13.3,1505.2,323.6,-0.8,1.8,2471.479,13.29,0.049,256.0
2023-03-18T05:43:03,42.805,6.029,-0.036,0.004,-0.025,102.0,103.0,102.0,13.3,1505.2,327.4,-0.7,1.8,2471.489,13.29,0.036,276.3
2023-03-18T05:46:03,42.805,6.029,-0.061,0.01,-0.04,104.0,103.0,101.0,13.4,1505.2,334.3,-0.8,1.8,2471.501,13.29,0.061,279.3
2023-03-18T05:49:03,42.805,6.029,-0.052,-0.007,-0.02,103.0,103.0,101.0,13.4,1505.2,327.0,-0.8,1.8,2471.504,13.29,0.052,262.3
2023-03-18T05:52:03,42.805,6.029,-0.062,-0.001,-0.026,103.0,102.0,102.0,13.4,1505.2,331.0,-0.7,1.8,2471.479,13.29,0.062,269.1
2023-03-18T05:55:03,42.805,6.029,-0.053,-0.01,-0.021,103.0,102.0,102.0,13.4,1505.2,335.8,-0.8,1.8,2471.512,13.29,0.053,259.3
2023-03-18T05:58:03,42.805,6.029,-0.034,0.016,-0.01,102.0,101.0,102.0,13.3,1505.2,335.4,-0.7,1.8,2471.522,13.29,0.037,295.2
2023-03-18T06:04:03,42.805,6.029,-0.072,0.022,-0.025,102.0,103.0,103.0,13.4,1505.2,332.1,-0.8,1.8,2471.534,13.28,0.075,287.0
2023-03-18T06:07:03,42.805,6.029,-0.064,0.013,-0.012,102.0,102.0,101.0,13.3,1505.2,329.0,-0.8,1.8,2471.551,13.28,0.065,281.5
2023-03-18T06:10:03,42.805,6.029,-0.062,-0.009,-0.034,103.0,102.0,101.0,13.4,1505.2,323.6,-0.8,1.8,2471.547,13.28,0.062,261.7
2023-03-18T06:13:03,42.805,6.029,-0.051,-0.022,-0.056,101.0,102.0,102.0,13.4,1505.2,325.3,-0.7,1.8,2471.54,13.28,0.055,246.7
2023-03-18T06:16:03,42.805,6.029,-0.075,0.001,-0.023,103.0,102.0,101.0,13.3,1505.2,321.2,-0.7,1.8,2471.528,13.28,0.075,270.8
2023-03-18T06:19:03,42.805,6.029,-0.032,0.001,-0.031,103.0,102.0,100.0,13.3,1505.2,316.1,-0.8,1.8,2471.54,13.29,0.032,271.8
2023-03-18T06:22:03,42.805,6.029,-0.063,-0.001,-0.048,103.0,102.0,102.0,13.4,1505.2,321.2,-0.8,1.8,2471.533,13.29,0.063,269.1
2023-03-18T06:25:03,42.805,6.029,-0.064,0.0,-0.045,103.0,101.0,102.0,13.4,1505.2,332.0,-0.8,1.8,2471.485,13.29,0.063,270.0
2023-03-18T06:28:03,42.805,6.029,-0.073,0.008,-0.036,103.0,100.0,102.0,13.3,1505.2,340.9,-0.8,1.8,2471.455,13.29,0.073,276.3
2023-03-18T06:31:03,42.805,6.029,-0.067,0.003,-0.028,102.0,101.0,103.0,13.4,1505.2,332.5,-0.7,1.8,2471.471,13.29,0.067,272.6
2023-03-18T06:34:03,42.805,6.029,-0.078,0.002,-0.055,103.0,103.0,102.0,13.4,1505.2,331.7,-0.7,1.8,2471.51,13.29,0.078,271.5
2023-03-18T06:37:03,42.805,6.029,-0.062,0.006,-0.04,103.0,101.0,102.0,13.3,1505.2,335.4,-0.8,1.8,2471.464,13.29,0.062,275.5
2023-03-18T06:40:03,42.805,6.029,-0.048,0.003,-0.041,103.0,102.0,101.0,13.4,1505.2,327.8,-0.7,1.8,2471.459,13.29,0.048,273.6
2023-03-18T06:43:03,42.805,6.029,-0.061,0.033,-0.041,104.0,102.0,101.0,13.4,1505.2,333.8,-0.8,1.8,2471.45,13.29,0.069,298.4
2023-03-18T06:46:03,42.805,6.029,-0.066,-0.008,-0.043,103.0,102.0,101.0,13.4,1505.2,322.7,-0.8,1.8,2471.512,13.29,0.066,263.1
2023-03-18T06:49:03,42.805,6.029,-0.055,0.012,-0.035,102.0,102.0,102.0,13.4,1505.2,322.3,-0.7,1.8,2471.486,13.29,0.056,282.3
2023-03-18T06:52:03,42.805,6.029,-0.047,0.031,0.007,104.0,101.0,102.0,13.3,1505.2,330.4,-0.8,1.8,2471.45,13.29,0.056,303.4
2023-03-18T06:55:03,42.805,6.029,-0.046,0.001,-0.034,102.0,102.0,104.0,13.4,1505.2,322.3,-0.7,1.8,2471.472,13.29,0.046,271.2
2023-03-18T06:58:03,42.805,6.029,-0.064,-0.016,-0.034,103.0,102.0,102.0,13.4,1505.2,321.8,-0.8,1.8,2471.49,13.29,0.065,256.0
2023-03-18T07:04:03,42.805,6.029,-0.071,0.006,-0.003,106.0,102.0,103.0,13.3,1505.2,327.1,-0.8,1.8,2471.541,13.28,0.071,274.8
2023-03-18T07:07:03,42.805,6.029,-0.05,-0.002,-0.026,103.0,103.0,101.0,13.4,1505.2,318.9,-0.7,1.8,2471.478,13.28,0.05,267.7
2023-03-18T07:10:03,42.805,6.029,-0.073,0.025,-0.015,102.0,101.0,103.0,13.4,1505.2,326.7,-0.8,1.8,2471.507,13.28,0.077,288.9
2023-03-18T07:13:03,42.805,6.029,-0.048,-0.005,-0.024,102.0,102.0,101.0,13.3,1505.2,314.3,-0.8,1.8,2471.503,13.28,0.048,264.1
2023-03-18T07:16:03,42.805,6.029,-0.04,-0.009,-0.027,103.0,101.0,102.0,13.4,1505.2,325.7,-0.8,1.8,2471.494,13.29,0.041,257.3
2023-03-18T07:19:03,42.805,6.029,-0.065,0.0,-0.041,103.0,102.0,101.0,13.4,1505.2,322.5,-0.8,1.8,2471.461,13.29,0.064,270.0
2023-03-18T07:22:03,42.805,6.029,-0.044,-0.014,-0.029,103.0,102.0,102.0,13.4,1505.2,321.8,-0.8,1.8,2471.476,13.29,0.046,252.4
2023-03-18T07:25:03,42.805,6.029,-0.068,0.003,-0.044,103.0,102.0,103.0,13.4,1505.2,330.1,-0.8,1.8,2471.438,13.29,0.068,272.5
2023-03-18T07:28:03,42.805,6.029,-0.061,-0.01,-0.032,103.0,103.0,101.0,13.4,1505.2,331.1,-0.7,1.8,2471.496,13.29,0.061,260.7
2023-03-18T07:31:03,42.805,6.029,-0.084,-0.013,-0.025,104.0,103.0,102.0,13.3,1505.2,322.3,-0.8,1.8,2471.461,13.29,0.084,261.2
2023-03-18T07:34:03,42.805,6.029,-0.047,0.024,-0.021,103.0,102.0,103.0,13.4,1505.2,331.1,-0.8,1.8,2471.432,13.29,0.052,297.0
2023-03-18T07:37:03,42.805,6.029,-0.057,0.002,-0.038,103.0,102.0,102.0,13.4,1505.2,340.9,-0.8,1.9,2471.421,13.29,0.057,272.0
2023-03-18T07:40:03,42.805,6.029,-0.066,-0.01,-0.014,103.0,103.0,102.0,13.4,1505.2,319.7,-0.7,1.8,2471.443,13.29,0.066,261.4
2023-03-18T07:43:03,42.805,6.029,-0.041,-0.009,-0.029,103.0,102.0,102.0,13.3,1505.2,322.5,-0.7,1.8,2471.461,13.29,0.041,257.6
2023-03-18T07:46:03,42.805,6.029,-0.078,-0.009,-0.031,103.0,103.0,102.0,13.3,1505.2,330.7,-0.7,1.8,2471.459,13.29,0.078,263.4
2023-03-18T07:49:03,42.805,6.029,-0.063,0.012,-0.019,102.0,104.0,102.0,13.4,1505.2,316.1,-0.7,1.8,2471.463,13.29,0.064,280.8
2023-03-18T07:52:03,42.805,6.029,-0.054,0.012,-0.025,102.0,103.0,102.0,13.3,1505.2,334.8,-0.8,1.8,2471.452,13.29,0.055,282.5
2023-03-18T07:55:03,42.805,6.029,-0.065,0.009,-0.024,103.0,103.0,101.0,13.3,1505.2,331.6,-0.7,1.8,2471.456,13.29,0.065,277.9
2023-03-18T07:58:03,42.805,6.029,-0.063,0.003,-0.031,103.0,103.0,102.0,13.4,1505.2,341.8,-0.8,1.8,2471.431,13.29,0.063,272.7
2023-03-18T08:04:03,42.805,6.029,-0.057,0.003,-0.021,103.0,104.0,102.0,13.4,1505.2,327.5,-0.8,1.8,2471.486,13.28,0.057,273.0
2023-03-18T08:07:03,42.805,6.029,-0.065,0.013,-0.005,103.0,104.0,103.0,13.3,1505.2,333.4,-0.8,1.8,2471.474,13.28,0.066,281.3
2023-03-18T08:10:03,42.805,6.029,-0.056,0.002,-0.035,103.0,103.0,102.0,13.4,1505.2,324.8,-0.8,1.8,2471.447,13.28,0.056,272.0
2023-03-18T08:13:03,42.805,6.029,-0.062,0.018,-0.018,103.0,103.0,103.0,13.3,1505.2,340.2,-0.8,1.8,2471.464,13.29,0.064,286.2
2023-03-18T08:16:03,42.805,6.029,-0.068,0.0,-0.018,103.0,101.0,103.0,13.4,1505.2,332.1,-0.8,1.8,2471.418,13.29,0.067,270.0
2023-03-18T08:19:03,42.805,6.029,-0.058,-0.01,-0.015,104.0,102.0,103.0,13.3,1505.2,327.0,-0.7,1.8,2471.448,13.29,0.058,260.2
2023-03-18T08:22:03,42.805,6.029,-0.057,0.006,-0.031,104.0,103.0,102.0,13.4,1505.2,317.2,-0.8,1.8,2471.44,13.29,0.057,276.0
2023-03-18T08:25:03,42.805,6.029,-0.026,0.004,-0.006,103.0,103.0,103.0,13.4,1505.2,327.6,-0.8,1.8,2471.418,13.29,0.026,278.7
2023-03-18T08:28:03,42.805,6.029,-0.059,-0.014,-0.007,104.0,104.0,102.0,13.3,1505.2,318.8,-0.7,1.8,2471.429,13.29,0.06,256.7
2023-03-18T08:31:03,42.805,6.029,-0.052,0.008,-0.056,104.0,102.0,102.0,13.4,1505.2,336.8,-0.8,1.8,2471.442,13.29,0.052,278.7
2023-03-18T08:34:03,42.805,6.029,-0.053,0.007,-0.048,104.0,102.0,103.0,13.3,1505.2,331.9,-0.8,1.8,2471.416,13.29,0.053,277.5
2023-03-18T08:37:03,42.805,6.029,-0.035,0.004,-0.033,103.0,103.0,102.0,13.3,1505.2,331.6,-0.8,1.8,2471.402,13.29,0.035,276.5
2023-03-18T08:40:03,42.805,6.029,-0.033,-0.013,-0.024,104.0,104.0,102.0,13.3,1505.2,332.9,-0.8,1.8,2471.418,13.29,0.035,248.5
2023-03-18T08:43:03,42.805,6.029,-0.066,-0.01,-0.005,105.0,103.0,103.0,13.4,1505.2,318.6,-0.8,1.8,2471.409,13.29,0.066,261.4
2023-03-18T08:46:03,42.805,6.029,-0.067,0.01,-0.026,103.0,103.0,102.0,13.4,1505.2,321.1,-0.7,1.8,2471.399,13.29,0.067,278.5
2023-03-18T08:49:03,42.805,6.029,-0.058,-0.017,-0.047,103.0,102.0,102.0,13.4,1505.2,316.8,-0.8,1.8,2471.414,13.29,0.06,253.7
2023-03-18T08:52:03,42.805,6.029,-0.061,0.009,-0.026,104.0,103.0,102.0,13.4,1505.2,330.7,-0.8,1.8,2471.413,13.29,0.061,278.4
2023-03-18T08:55:03,42.805,6.029,-0.065,-0.009,-0.027,104.0,103.0,102.0,13.4,1505.2,329.4,-0.8,1.8,2471.429,13.29,0.065,262.1
2023-03-18T08:58:03,42.805,6.029,-0.053,0.012,-0.039,103.0,102.0,102.0,13.4,1505.2,330.5,-0.8,1.9,2471.405,13.29,0.054,282.8
2023-03-18T09:04:03,42.805,6.029,-0.038,-0.004,-0.01,104.0,103.0,101.0,13.3,1505.2,323.6,-0.8,1.8,2471.442,13.28,0.038,264.0
2023-03-18T09:07:03,42.805,6.029,-0.026,-0.017,-0.006,103.0,104.0,103.0,13.3,1505.2,320.4,-0.8,1.8,2471.46,13.28,0.031,236.8
2023-03-18T09:10:03,42.805,6.029,-0.061,0.004,-0.029,105.0,103.0,102.0,13.3,1505.2,326.8,-0.8,1.8,2471.428,13.28,0.061,273.7
2023-03-18T09:13:03,42.805,6.029,-0.048,-0.01,-0.034,102.0,103.0,103.0,13.4,1505.2,324.2,-0.8,1.8,2471.445,13.28,0.049,258.2
2023-03-18T09:16:03,42.805,6.029,-0.038,0.012,-0.018,104.0,104.0,102.0,13.4,1505.2,330.2,-0.8,1.8,2471.425,13.29,0.039,287.5
2023-03-18T09:19:03,42.805,6.029,-0.061,0.035,-0.018,103.0,103.0,103.0,13.4,1505.2,336.2,-0.8,1.8,2471.41,13.29,0.07,299.8
2023-03-18T09:22:03,42.805,6.029,-0.047,0.0,-0.016,104.0,103.0,103.0,13.4,1505.2,335.1,-0.7,1.8,2471.404,13.29,0.047,270.0
2023-03-18T09:25:03,42.805,6.029,-0.023,0.016,-0.013,104.0,103.0,102.0,13.3,1505.2,330.6,-0.8,1.8,2471.369,13.29,0.028,304.8
2023-03-18T09:28:03,42.805,6.029,-0.066,0.012,-0.023,104.0,103.0,103.0,13.4,1505.2,337.5,-0.8,1.8,2471.377,13.29,0.067,280.3
2023-03-18T09:31:03,42.805,6.029,-0.053,0.002,-0.027,104.0,103.0,103.0,13.4,1505.2,331.1,-0.7,1.8,2471.394,13.29,0.053,272.2
2023-03-18T09:34:03,42.805,6.029,-0.072,0.005,-0.002,103.0,104.0,103.0,13.4,1505.2,320.6,-0.8,1.8,2471.388,13.29,0.072,274.0
2023-03-18T09:37:03,42.805,6.029,-0.034,0.002,-0.004,103.0,102.0,103.0,13.4,1505.2,322.1,-0.7,1.8,2471.341,13.29,0.034,273.4
2023-03-18T09:40:03,42.805,6.029,-0.044,-0.014,-0.036,104.0,103.0,102.0,13.4,1505.2,339.5,-0.7,1.8,2471.356,13.29,0.046,252.4
2023-03-18T09:43:03,42.805,6.029,-0.037,-0.002,-0.008,104.0,103.0,102.0,13.4,1505.2,329.0,-0.8,1.8,2471.348,13.29,0.037,266.9
2023-03-18T09:46:03,42.805,6.029,-0.027,0.013,-0.003,105.0,103.0,103.0,13.3,1505.2,322.5,-0.8,1.8,2471.367,13.29,0.029,295.7
2023-03-18T09:49:03,42.805,6.029,-0.038,0.01,-0.028,103.0,105.0,103.0,13.4,1505.2,338.8,-0.8,1.8,2471.372,13.29,0.039,284.7
2023-03-18T09:52:03,42.805,6.029,-0.038,-0.015,-0.027,103.0,103.0,102.0,13.4,1505.2,324.6,-0.8,1.8,2471.371,13.29,0.04,248.5